Station ELFA2 - 9452634 - Elfin Cove, AK Image indicating link to RSS feed of recent meteorological observations for station ELFA2


Conditions at ELFA2 as of
(12:54 am AKDT)
0854 GMT on 05/26/2024:
     

Click on the graph icon in the table below to see a time series plot of the last five days of that observation.

5-day plot - Atmospheric Pressure Atmospheric Pressure (PRES):29.66 in
5-day plot - Water Temperature Water Temperature (WTMP): 45.9 °F
NOS Water Level Observation Network Water Level
Previous observations
TIME
(AKDT)
5-day plot - Wind Direction
WDIR
 
5-day plot - Wind Speed
WSPD
kts
5-day plot - Wind Gust
GST
kts
5-day plot - Wave Height
WVHT
ft
5-day plot - Dominant Wave Period
DPD
sec
5-day plot - Average Wave Period
APD
sec
5-day plot - Mean Wave Direction
MWD
 
5-day plot - Atmospheric Pressure
PRES
in
5-day plot - Pressure Tendency
PTDY
in
5-day plot - Air Temperature
ATMP
°F
5-day plot - Water Temperature
WTMP
°F
5-day plot - Dew Point
DEWP
°F
5-day plot - Salinity
SAL
psu
5-day plot - Visibility
VIS
nmi
5-day plot - Tide (above MLLW)
TIDE
ft
2024-05-26 12:48 am-------29.66-- 45.9----
2024-05-26 12:42 am-------29.66-- 45.9----
2024-05-26 12:36 am-------29.67-- 45.9----
2024-05-26 12:30 am-------29.67-- 45.9----
2024-05-26 12:24 am-------29.67-- 45.9----
2024-05-26 12:18 am-------29.67-- 45.9----
2024-05-26 12:12 am-------29.67-- 45.9----
2024-05-26 12:06 am-------29.67-- 45.9----
2024-05-26 12:00 am-------29.67-0.01- 45.9----
2024-05-25 11:54 pm-------29.67-- 45.9----
2024-05-25 11:48 pm-------29.67-- 45.9----
2024-05-25 11:42 pm-------29.67-- 45.9----
2024-05-25 11:36 pm-------29.67-- 45.7----
2024-05-25 11:30 pm-------29.67-- 45.7----
2024-05-25 11:24 pm-------29.67-- 45.7----
2024-05-25 11:18 pm-------29.67-- 45.7----
2024-05-25 11:12 pm-------29.67-- 45.7----
2024-05-25 11:06 pm-------29.67-- 45.7----
2024-05-25 11:00 pm-------29.67-0.01- 45.7----
2024-05-25 10:54 pm-------29.67-- 45.7----
2024-05-25 10:48 pm-------29.67-- 45.7----
2024-05-25 10:42 pm-------29.67-- 45.7----
2024-05-25 10:36 pm-------29.67-- 45.7----
2024-05-25 10:30 pm-------29.67-- 45.7----
2024-05-25 10:24 pm-------29.67-- 45.7----
2024-05-25 10:18 pm-------29.67-- 45.7----
2024-05-25 10:12 pm-------29.67-- 45.7----
2024-05-25 10:06 pm-------29.67-- 45.7----
2024-05-25 10:00 pm-------29.67+0.00- 45.7----
2024-05-25 09:54 pm-------29.67-- 45.7----
2024-05-25 09:48 pm-------29.68-- 45.7----
2024-05-25 09:42 pm-------29.68-- 45.7----
2024-05-25 09:36 pm-------29.68-- 45.7----
2024-05-25 09:30 pm-------29.68-- 45.7----
2024-05-25 09:24 pm-------29.68-- 45.7----
2024-05-25 09:18 pm-------29.68-- 45.7----
2024-05-25 09:12 pm-------29.68-- 45.7----
2024-05-25 09:06 pm-------29.68-- 45.7----
2024-05-25 09:00 pm-------29.68+0.00- 45.7----
2024-05-25 08:54 pm-------29.67-- 45.7----
2024-05-25 08:48 pm-------29.67-- 45.5----
2024-05-25 08:42 pm-------29.67-- 45.5----
2024-05-25 08:36 pm-------29.67-- 45.5----
2024-05-25 08:30 pm-------29.67-- 45.5----
2024-05-25 08:24 pm-------29.67-- 45.5----
2024-05-25 08:18 pm-------29.67-- 45.5----
2024-05-25 08:12 pm-------29.67-- 45.5----
2024-05-25 08:06 pm-------29.67-- 45.5----
2024-05-25 08:00 pm-------29.68-0.01- 45.5----
2024-05-25 07:54 pm-------29.68-- 45.5----
2024-05-25 07:48 pm-------29.68-- 45.5----
2024-05-25 07:42 pm-------29.67-- 45.5----
2024-05-25 07:36 pm-------29.68-- 45.5----
2024-05-25 07:30 pm-------29.68-- 45.5----
2024-05-25 07:24 pm-------29.68-- 45.5----
2024-05-25 07:18 pm-------29.68-- 45.5----
2024-05-25 07:12 pm-------29.68-- 45.7----
2024-05-25 07:06 pm-------29.68-- 45.9----
2024-05-25 07:00 pm-------29.68+0.00- 45.9----
2024-05-25 06:54 pm-------29.68-- 45.9----
2024-05-25 06:48 pm-------29.68-- 45.9----
2024-05-25 06:42 pm-------29.68-- 45.9----
2024-05-25 06:36 pm-------29.68-- 45.9----
2024-05-25 06:30 pm-------29.68-- 45.9----
2024-05-25 06:24 pm-------29.68-- 45.9----
2024-05-25 06:18 pm-------29.68-- 45.9----
2024-05-25 06:12 pm-------29.68-- 45.7----
2024-05-25 06:06 pm-------29.68-- 45.7----
2024-05-25 06:00 pm-------29.68+0.00- 45.7----
2024-05-25 05:54 pm-------29.69-- 45.7----
2024-05-25 05:48 pm-------29.69-- 45.7----
2024-05-25 05:42 pm-------29.69-- 45.7----
2024-05-25 05:36 pm-------29.69-- 45.7----
2024-05-25 05:30 pm-------29.69-- 45.7----
2024-05-25 05:24 pm-------29.69-- 45.7----
2024-05-25 05:18 pm-------29.69-- 45.7----
2024-05-25 05:12 pm-------29.69-- 45.5----
2024-05-25 05:06 pm-------29.69-- 45.5----
2024-05-25 05:00 pm-------29.69-- 45.5----
2024-05-25 04:54 pm-------29.69-- 45.5----
2024-05-25 04:48 pm-------29.69-- 45.5----
2024-05-25 04:42 pm-------29.69-- 45.5----
2024-05-25 04:36 pm-------29.69-- 45.5----
2024-05-25 04:30 pm-------29.69-- 45.5----
2024-05-25 04:24 pm-------29.69-- 45.5----
2024-05-25 04:18 pm-------29.69-- 45.5----
2024-05-25 04:12 pm-------29.69-- 45.5----
2024-05-25 04:06 pm-------29.68-- 45.5----
2024-05-25 04:00 pm-------29.68-0.01- 45.5----
2024-05-25 03:54 pm-------29.68-- 45.5----
2024-05-25 03:48 pm-------29.68-- 45.5----
2024-05-25 03:42 pm-------29.68-- 45.5----
2024-05-25 03:36 pm-------29.68-- 45.5----
2024-05-25 03:30 pm-------29.69-- 45.5----
2024-05-25 03:24 pm-------29.69-- 45.5----
2024-05-25 03:00 pm-------29.69-0.01- 45.5----
2024-05-25 02:54 pm-------29.69-- 45.5----
2024-05-25 02:48 pm-------29.69-- 45.5----
2024-05-25 02:42 pm-------29.69-- 45.5----
2024-05-25 02:36 pm-------29.69-- 45.5----
2024-05-25 02:30 pm-------29.69-- 45.5----
2024-05-25 02:24 pm-------29.69-- 45.5----
2024-05-25 02:18 pm-------29.69-- 45.7----
2024-05-25 02:12 pm-------29.69-- 45.7----
2024-05-25 02:06 pm-------29.69-- 45.7----
2024-05-25 02:00 pm---------- 45.7----
2024-05-25 01:54 pm---------- 45.7----
2024-05-25 01:48 pm-------29.69-- 45.7----
2024-05-25 01:42 pm-------29.69-- 45.7----
2024-05-25 01:36 pm-------29.69-- 45.7----
2024-05-25 01:30 pm-------29.69-------
2024-05-25 01:24 pm-------29.69-------
2024-05-25 01:18 pm-------29.70-- 45.7----
2024-05-25 01:12 pm-------29.70-- 45.7----
2024-05-25 01:06 pm-------29.70-- 45.7----
2024-05-25 01:00 pm-------29.70+0.00- 45.7----
2024-05-25 12:54 pm-------29.70-- 45.7----
2024-05-25 12:48 pm-------29.70-- 45.7----
2024-05-25 12:42 pm-------29.70-- 45.7----
2024-05-25 12:36 pm-------29.70-- 45.7----
2024-05-25 12:30 pm-------29.70-- 45.7----
2024-05-25 12:24 pm-------29.70-- 45.9----
2024-05-25 12:18 pm-------29.70-- 45.7----
2024-05-25 12:12 pm-------29.70-- 45.9----
2024-05-25 12:06 pm-------29.70-- 45.7----
2024-05-25 12:00 pm-------29.70-0.01- 45.7----
2024-05-25 11:54 am-------29.70-- 45.7----
2024-05-25 11:48 am-------29.70-- 45.7----
2024-05-25 11:42 am-------29.70-- 45.7----
2024-05-25 11:36 am-------29.70-- 45.7----
2024-05-25 11:30 am-------29.70-- 45.7----
2024-05-25 11:24 am-------29.70-- 45.7----
2024-05-25 11:18 am-------29.70-- 45.7----
2024-05-25 11:12 am-------29.70-- 45.7----
2024-05-25 11:06 am-------29.70-- 45.9----
2024-05-25 11:00 am-------29.70-0.01- 45.9----
2024-05-25 10:54 am-------29.70-- 45.9----
2024-05-25 10:48 am-------29.70-- 45.9----
2024-05-25 10:42 am-------29.70-- 45.9----
2024-05-25 10:36 am-------29.70-- 45.9----
2024-05-25 10:30 am-------29.70-- 45.9----
2024-05-25 10:24 am-------29.70-- 45.9----
2024-05-25 10:18 am-------29.70-- 45.9----
2024-05-25 10:12 am-------29.70-- 45.9----
2024-05-25 10:06 am-------29.70-- 45.9----
2024-05-25 10:00 am-------29.70-0.01- 45.9----
2024-05-25 09:54 am-------29.70-- 45.9----
2024-05-25 09:48 am-------29.70-- 45.9----
2024-05-25 09:42 am-------29.70-- 45.9----
2024-05-25 09:36 am-------29.70-- 45.9----
2024-05-25 09:30 am-------29.70-- 45.9----
2024-05-25 09:24 am-------29.70-- 45.9----
2024-05-25 09:18 am-------29.70-- 45.9----
2024-05-25 09:12 am-------29.70-- 45.9----
2024-05-25 09:06 am-------29.70-- 45.9----
2024-05-25 09:00 am-------29.70-0.02- 45.9----
2024-05-25 08:54 am-------29.71-- 46.0----
2024-05-25 08:48 am-------29.71-- 46.2----
2024-05-25 08:42 am-------29.71-- 46.2----
2024-05-25 08:36 am-------29.71-- 46.2----
2024-05-25 08:30 am-------29.71-- 46.2----
2024-05-25 08:24 am-------29.71-- 46.2----
2024-05-25 08:18 am-------29.71-- 46.2----
2024-05-25 08:12 am-------29.71-- 46.2----
2024-05-25 08:06 am-------29.71-- 46.2----
2024-05-25 08:00 am-------29.71-0.02- 46.2----
2024-05-25 07:54 am-------29.71-- 46.2----
2024-05-25 07:48 am-------29.71-- 46.2----
2024-05-25 07:42 am-------29.71-- 46.2----
2024-05-25 07:36 am-------29.71-- 46.2----
2024-05-25 07:30 am-------29.71-- 46.2----
2024-05-25 07:24 am-------29.71-- 46.2----
2024-05-25 07:18 am-------29.72-- 46.2----
2024-05-25 07:12 am-------29.71-- 46.0----
2024-05-25 07:06 am-------29.72-- 46.0----
2024-05-25 07:00 am-------29.72-0.03- 46.0----
2024-05-25 06:54 am-------29.72-- 46.0----
2024-05-25 06:48 am-------29.72-- 46.0----
2024-05-25 06:42 am-------29.72-- 46.0----
2024-05-25 06:36 am-------29.72-- 46.0----
2024-05-25 06:30 am-------29.72-- 46.0----
2024-05-25 06:24 am-------29.72-- 46.0----
2024-05-25 06:18 am-------29.72-- 46.0----
2024-05-25 06:12 am-------29.72-- 46.0----
2024-05-25 06:06 am-------29.72-- 46.0----
2024-05-25 06:00 am-------29.72-0.04- 46.0----
2024-05-25 05:54 am-------29.72-- 46.0----
2024-05-25 05:48 am-------29.72-- 46.0----
2024-05-25 05:42 am-------29.73-- 46.0----
2024-05-25 05:36 am-------29.73-- 46.0----
2024-05-25 05:30 am-------29.73-- 46.0----
2024-05-25 05:24 am-------29.73-- 46.0----
2024-05-25 05:18 am-------29.73-- 45.9----
2024-05-25 05:12 am-------29.73-- 45.9----
2024-05-25 05:06 am-------29.73-- 45.9----
2024-05-25 05:00 am-------29.73-0.04- 45.9----
2024-05-25 04:54 am-------29.73-- 45.9----
2024-05-25 04:48 am-------29.74-- 45.9----
2024-05-25 04:42 am-------29.74-- 45.9----
2024-05-25 04:36 am-------29.74-- 45.9----
2024-05-25 04:30 am-------29.74-- 45.9----
2024-05-25 04:24 am-------29.74-- 45.7----
2024-05-25 04:18 am-------29.74-- 45.7----
2024-05-25 04:12 am-------29.74-- 45.7----
2024-05-25 04:06 am-------29.75-- 45.7----
2024-05-25 04:00 am-------29.75-0.04- 45.7----
2024-05-25 03:54 am-------29.75-- 45.7----
2024-05-25 03:48 am-------29.75-- 45.7----
2024-05-25 03:42 am-------29.75-- 45.7----
2024-05-25 03:36 am-------29.75-- 45.5----
2024-05-25 03:30 am-------29.75-- 45.5----
2024-05-25 03:24 am-------29.75-- 45.3----
2024-05-25 03:18 am-------29.76-- 45.3----
2024-05-25 03:12 am-------29.76-- 45.3----
2024-05-25 03:06 am-------29.76-- 45.3----
2024-05-25 03:00 am-------29.76-0.03- 45.5----
2024-05-25 02:54 am-------29.76-- 45.5----
2024-05-25 02:48 am-------29.77-- 45.3----
2024-05-25 02:42 am-------29.77-- 45.3----
2024-05-25 02:36 am-------29.77-- 45.3----
2024-05-25 02:30 am-------29.77-- 45.3----
2024-05-25 02:24 am-------29.77-- 45.3----
2024-05-25 02:18 am-------29.77-- 45.3----
2024-05-25 02:12 am-------29.77-- 45.3----
2024-05-25 02:06 am-------29.77-- 45.3----
2024-05-25 02:00 am-------29.78-0.04- 45.5----
2024-05-25 01:54 am-------29.78-- 45.5----
2024-05-25 01:48 am-------29.78-- 45.5----
2024-05-25 01:42 am-------29.78-- 45.5----
2024-05-25 01:36 am-------29.78-- 45.5----
2024-05-25 01:30 am---------- 45.5----
2024-05-25 01:24 am---------- 45.5----
2024-05-25 01:18 am-------29.78-- 45.7----
2024-05-25 01:12 am-------29.78-- 45.7----
2024-05-25 01:06 am-------29.79-- 45.9----
2024-05-25 01:00 am-------29.79-0.05- 46.0----
2024-05-25 12:54 am-------29.79-- 46.0----